ACA74 CYYZ-LOWW

Flight info

Callsign ACA74
Flight time N/A
Altitude 35000
Route SSENA194053 BEEHS JIGZY HULTN N611A SAXAN/M084F350 5250N 5340N 5330N 5320N MALOT/N0483F350 GISTI/N0481F370 EVRIN JETZI AMFUL CAWZE SIRIC P2 DVR UL9 KONAN UL607 KOK MATUG AMASI BOMBI DETEV DINKU BESNI ALUTU AKIMA/N0500F310 MASUR
Aircraft B77W/H-SDE1E2E3FGHIJ2J3J4J5M1RWXY/LB1D1

Departure

Time N/A
Airport Toronto Pearson International Airport (CYYZ)

Arrival

Time 2026-04-25 22:54
Airport Vienna International Airport (LOWW)
Time Latitude Longitude Altitude Speed Heading
2026-04-25 18:48 53.00847 -29.77933 34957 ft 512 kts 87°
2026-04-25 18:49 53.01364 -29.66097 34957 ft 513 kts 88°
2026-04-25 18:49 53.01837 -29.54256 34956 ft 514 kts 88°
2026-04-25 18:50 53.02279 -29.42476 34958 ft 514 kts 88°
2026-04-25 18:50 53.02711 -29.30592 34962 ft 515 kts 88°
2026-04-25 18:51 53.02995 -29.22642 34962 ft 515 kts 88°
2026-04-25 18:51 53.03547 -29.06796 34960 ft 515 kts 88°
2026-04-25 18:52 53.03946 -28.94969 34962 ft 516 kts 88°
2026-04-25 18:52 53.04335 -28.83060 34966 ft 516 kts 88°
2026-04-25 18:53 53.04712 -28.71146 34970 ft 516 kts 88°
2026-04-25 18:53 53.05077 -28.59231 34970 ft 516 kts 88°
2026-04-25 18:54 53.05604 -28.41323 34973 ft 516 kts 88°
2026-04-25 18:55 53.05940 -28.29398 34973 ft 516 kts 88°
2026-04-25 18:55 53.06262 -28.17530 34976 ft 517 kts 88°
2026-04-25 18:56 53.06574 -28.05587 34972 ft 517 kts 88°
2026-04-25 18:56 53.06824 -27.95666 34977 ft 517 kts 88°
2026-04-25 18:57 53.07115 -27.83689 34974 ft 517 kts 89°
2026-04-25 18:57 53.07393 -27.71753 34979 ft 517 kts 89°
2026-04-25 18:58 53.07660 -27.59781 34979 ft 517 kts 89°
2026-04-25 18:58 53.08036 -27.41910 34982 ft 517 kts 89°
2026-04-25 18:59 53.08498 -27.17961 34981 ft 518 kts 89°
2026-04-25 19:00 53.08813 -26.99983 34984 ft 518 kts 89°
2026-04-25 19:01 53.09101 -26.82013 34987 ft 518 kts 89°
2026-04-25 19:01 53.09278 -26.70005 34990 ft 518 kts 89°
2026-04-25 19:02 53.09521 -26.52014 34990 ft 518 kts 89°
2026-04-25 19:03 53.09714 -26.36050 34988 ft 518 kts 89°
2026-04-25 19:03 53.09864 -26.22115 34987 ft 518 kts 89°
2026-04-25 19:04 53.10035 -26.04131 34990 ft 518 kts 89°
2026-04-25 19:05 53.10220 -25.80166 34991 ft 518 kts 90°
2026-04-25 19:06 53.10295 -25.68180 34995 ft 518 kts 90°
2026-04-25 19:06 53.10384 -25.50183 34994 ft 518 kts 90°
2026-04-25 19:07 53.10446 -25.32203 34995 ft 518 kts 90°
2026-04-25 19:08 53.10481 -25.14224 34999 ft 518 kts 90°
2026-04-25 19:09 53.10487 -24.92253 35006 ft 518 kts 90°
2026-04-25 19:10 53.10457 -24.72305 35004 ft 518 kts 90°
2026-04-25 19:10 53.10424 -24.60314 35004 ft 518 kts 91°
2026-04-25 19:11 53.10378 -24.48332 35008 ft 518 kts 91°
2026-04-25 19:11 53.10320 -24.36350 35008 ft 517 kts 91°
2026-04-25 19:12 53.10250 -24.24371 35009 ft 517 kts 91°
2026-04-25 19:12 53.10168 -24.12396 35010 ft 517 kts 91°
2026-04-25 19:13 53.10074 -24.00421 35012 ft 516 kts 91°
2026-04-25 19:13 53.09969 -23.88548 35009 ft 516 kts 91°
2026-04-25 19:14 53.09852 -23.76596 35013 ft 516 kts 92°
2026-04-25 19:14 53.09722 -23.64660 35013 ft 515 kts 92°
2026-04-25 19:15 53.09581 -23.52742 35018 ft 515 kts 92°
2026-04-25 19:15 53.09429 -23.40840 35019 ft 515 kts 92°
2026-04-25 19:16 53.09264 -23.28926 35021 ft 514 kts 92°
2026-04-25 19:16 53.09087 -23.17010 35019 ft 514 kts 92°
2026-04-25 19:17 53.08899 -23.05124 35021 ft 514 kts 92°
2026-04-25 19:17 53.08700 -22.93303 35026 ft 513 kts 93°
2026-04-25 19:18 53.08488 -22.81426 35026 ft 513 kts 93°
2026-04-25 19:18 53.08264 -22.69555 35027 ft 513 kts 93°
2026-04-25 19:19 53.08029 -22.57684 35026 ft 513 kts 93°
2026-04-25 19:19 53.07782 -22.45823 35027 ft 513 kts 93°
2026-04-25 19:20 53.07523 -22.33954 35031 ft 513 kts 94°
2026-04-25 19:20 53.07252 -22.22081 35031 ft 513 kts 94°
2026-04-25 19:21 53.06971 -22.10279 35035 ft 513 kts 94°
2026-04-25 19:21 53.06526 -21.92495 35034 ft 513 kts 94°
2026-04-25 19:22 53.06214 -21.80637 35041 ft 512 kts 94°
2026-04-25 19:23 53.05725 -21.62873 35040 ft 512 kts 94°
2026-04-25 19:23 53.05212 -21.45213 35047 ft 511 kts 95°
2026-04-25 19:24 53.04854 -21.33398 35044 ft 511 kts 95°
2026-04-25 19:25 53.04104 -21.09794 35049 ft 510 kts 95°
2026-04-25 19:25 53.03715 -20.98091 35050 ft 510 kts 95°
2026-04-25 19:26 53.03312 -20.86322 35048 ft 509 kts 95°
2026-04-25 19:26 53.02897 -20.74558 35052 ft 509 kts 95°
2026-04-25 19:27 53.02617 -20.66787 35064 ft 509 kts 95°
2026-04-25 19:27 53.02036 -20.51104 35063 ft 508 kts 95°
2026-04-25 19:28 53.01589 -20.39391 35064 ft 508 kts 95°
2026-04-25 19:28 53.01130 -20.27689 35073 ft 507 kts 96°
2026-04-25 19:29 53.00664 -20.16083 35071 ft 506 kts 96°
2026-04-25 19:29 53.00186 -20.04414 35071 ft 506 kts 96°
2026-04-25 19:30 53.00055 -19.92736 35078 ft 506 kts 90°
2026-04-25 19:30 53.00319 -19.81047 35076 ft 506 kts 89°
2026-04-25 19:31 53.00587 -19.69358 35079 ft 506 kts 89°
2026-04-25 19:31 53.00813 -19.57694 35084 ft 505 kts 90°
2026-04-25 19:32 53.01011 -19.46022 35077 ft 505 kts 90°
2026-04-25 19:32 53.01133 -19.38307 35081 ft 505 kts 90°
2026-04-25 19:33 53.01366 -19.22798 35085 ft 504 kts 90°
2026-04-25 19:33 53.01529 -19.11167 35089 ft 504 kts 90°
2026-04-25 19:34 53.01680 -18.99535 35090 ft 503 kts 90°
2026-04-25 19:34 53.01821 -18.87914 35090 ft 503 kts 90°
2026-04-25 19:35 53.01950 -18.76298 35085 ft 503 kts 91°
2026-04-25 19:35 53.02048 -18.66638 35087 ft 503 kts 91°
2026-04-25 19:36 53.02156 -18.55017 35091 ft 503 kts 91°
2026-04-25 19:36 53.02253 -18.43385 35097 ft 503 kts 91°
2026-04-25 19:37 53.02338 -18.31748 35097 ft 504 kts 91°
2026-04-25 19:37 53.02412 -18.20081 35100 ft 504 kts 91°
2026-04-25 19:38 53.02475 -18.08495 35103 ft 505 kts 92°
2026-04-25 19:38 53.02527 -17.96798 35106 ft 506 kts 92°
2026-04-25 19:39 53.02567 -17.85087 35106 ft 506 kts 92°
2026-04-25 19:39 53.02596 -17.73363 35109 ft 507 kts 92°
2026-04-25 19:40 53.02613 -17.61634 35106 ft 507 kts 92°
2026-04-25 19:40 53.02619 -17.49901 35112 ft 508 kts 93°
2026-04-25 19:41 53.02613 -17.38168 35114 ft 508 kts 93°
2026-04-25 19:41 53.02599 -17.28403 35119 ft 509 kts 93°
2026-04-25 19:42 53.02567 -17.14729 35118 ft 509 kts 93°
2026-04-25 19:42 53.02526 -17.02958 35123 ft 509 kts 94°
2026-04-25 19:43 53.02474 -16.91182 35127 ft 509 kts 94°
2026-04-25 19:43 53.02410 -16.79416 35126 ft 509 kts 94°
2026-04-25 19:44 53.02335 -16.67654 35129 ft 509 kts 94°
2026-04-25 19:44 53.02248 -16.55887 35127 ft 509 kts 94°
2026-04-25 19:45 53.02149 -16.44124 35132 ft 509 kts 94°
2026-04-25 19:45 53.02039 -16.32373 35134 ft 509 kts 94°
2026-04-25 19:46 53.01918 -16.20624 35139 ft 509 kts 94°
2026-04-25 19:46 53.01784 -16.08870 35140 ft 508 kts 95°
2026-04-25 19:47 53.01639 -15.97121 35141 ft 508 kts 95°
2026-04-25 19:47 53.01483 -15.85385 35150 ft 508 kts 95°
2026-04-25 19:48 53.01315 -15.73629 35149 ft 508 kts 95°
2026-04-25 19:48 53.01137 -15.61978 35150 ft 507 kts 95°
2026-04-25 19:49 53.00979 -15.52168 35150 ft 507 kts 95°
2026-04-25 19:49 53.00745 -15.38562 35154 ft 507 kts 95°
2026-04-25 19:50 53.00421 -15.21005 35157 ft 507 kts 95°
2026-04-25 19:51 53.00192 -15.09317 35162 ft 506 kts 95°
2026-04-25 19:51 52.99959 -14.97623 35162 ft 507 kts 95°
2026-04-25 19:52 52.99960 -14.85910 35164 ft 508 kts 92°
2026-04-25 19:52 53.00054 -14.74170 35168 ft 508 kts 92°
2026-04-25 19:53 53.00102 -14.62448 35167 ft 508 kts 93°
2026-04-25 19:53 53.00108 -14.50731 35170 ft 508 kts 93°
2026-04-25 19:54 53.00099 -14.39009 35174 ft 508 kts 93°
2026-04-25 19:54 53.00082 -14.27280 35177 ft 508 kts 94°
2026-04-25 19:55 53.00055 -14.15628 35178 ft 508 kts 94°
2026-04-25 19:55 53.00003 -14.03905 35181 ft 507 kts 95°
2026-04-25 19:56 52.99133 -13.92380 35182 ft 500 kts 106°
2026-04-25 19:56 52.97616 -13.81096 35179 ft 500 kts 107°
2026-04-25 19:57 52.96086 -13.69838 35179 ft 500 kts 106°
2026-04-25 19:57 52.94578 -13.58545 35182 ft 501 kts 106°
2026-04-25 19:58 52.93090 -13.47347 35188 ft 501 kts 106°
2026-04-25 19:58 52.91583 -13.36067 35194 ft 501 kts 106°
2026-04-25 19:59 52.90064 -13.24791 35193 ft 501 kts 106°
2026-04-25 19:59 52.88533 -13.13528 35191 ft 501 kts 106°
2026-04-25 20:00 52.86992 -13.02279 35194 ft 501 kts 107°
2026-04-25 20:00 52.85437 -12.91011 35198 ft 501 kts 107°
2026-04-25 20:01 52.83099 -12.74232 35195 ft 501 kts 107°
2026-04-25 20:01 52.81521 -12.63018 35207 ft 501 kts 107°
2026-04-25 20:02 52.79930 -12.51791 35197 ft 501 kts 107°
2026-04-25 20:02 52.78331 -12.40584 35201 ft 501 kts 107°
2026-04-25 20:03 52.76722 -12.29393 35202 ft 501 kts 107°
2026-04-25 20:03 52.75101 -12.18200 35206 ft 501 kts 107°
2026-04-25 20:04 52.73478 -12.07074 35203 ft 501 kts 107°
2026-04-25 20:04 52.71837 -11.95904 35206 ft 501 kts 107°
2026-04-25 20:05 52.70183 -11.84723 35205 ft 501 kts 107°
2026-04-25 20:05 52.68519 -11.73557 35207 ft 502 kts 107°
2026-04-25 20:06 52.66841 -11.62379 35209 ft 502 kts 107°
2026-04-25 20:06 52.65165 -11.51289 35210 ft 502 kts 107°
2026-04-25 20:07 52.63468 -11.40139 35210 ft 502 kts 107°
2026-04-25 20:07 52.61758 -11.28978 35213 ft 502 kts 107°
2026-04-25 20:08 52.60038 -11.17834 35213 ft 502 kts 107°
2026-04-25 20:08 52.58308 -11.06696 35210 ft 503 kts 108°
2026-04-25 20:09 52.56565 -10.95556 35210 ft 503 kts 108°
2026-04-25 20:09 52.54811 -10.84421 35214 ft 503 kts 108°
2026-04-25 20:10 52.53045 -10.73281 35212 ft 503 kts 108°
2026-04-25 20:10 52.51283 -10.62240 35224 ft 503 kts 108°
2026-04-25 20:11 52.49493 -10.51103 35218 ft 503 kts 108°
2026-04-25 20:11 52.47696 -10.39992 35216 ft 504 kts 108°
2026-04-25 20:12 52.45886 -10.28876 35218 ft 504 kts 108°
2026-04-25 20:12 52.44683 -10.21526 35218 ft 504 kts 108°
2026-04-25 20:13 52.42248 -10.06749 35218 ft 504 kts 108°
2026-04-25 20:13 52.40407 -9.95660 35214 ft 504 kts 108°
2026-04-25 20:14 52.38555 -9.84581 35216 ft 504 kts 108°
2026-04-25 20:14 52.36694 -9.73513 35217 ft 504 kts 108°
2026-04-25 20:15 52.34819 -9.62430 35217 ft 505 kts 108°
2026-04-25 20:15 52.33255 -9.53246 35214 ft 505 kts 108°
2026-04-25 20:16 52.31361 -9.42185 35214 ft 505 kts 108°
2026-04-25 20:16 52.29455 -9.31126 35213 ft 505 kts 108°
2026-04-25 20:17 52.27229 -9.18291 35388 ft 507 kts 108°
2026-04-25 20:17 52.26581 -9.14576 35639 ft 505 kts 108°
2026-04-25 20:17 52.25614 -9.09042 36051 ft 503 kts 108°
2026-04-25 20:18 52.24656 -9.03571 36433 ft 501 kts 108°
2026-04-25 20:18 52.23709 -8.98185 36794 ft 499 kts 108°
2026-04-25 20:18 52.22738 -8.92677 37097 ft 499 kts 108°
2026-04-25 20:18 52.21785 -8.87295 37370 ft 499 kts 108°
2026-04-25 20:19 52.20821 -8.81862 37651 ft 499 kts 108°
2026-04-25 20:19 52.19855 -8.76434 37936 ft 498 kts 108°
2026-04-25 20:19 52.18888 -8.71017 38169 ft 498 kts 108°
2026-04-25 20:19 52.17916 -8.65590 38194 ft 498 kts 108°
2026-04-25 20:20 52.15976 -8.54801 38184 ft 493 kts 108°
2026-04-25 20:20 52.14046 -8.44131 38192 ft 490 kts 108°
2026-04-25 20:21 52.12113 -8.33508 38194 ft 489 kts 108°
2026-04-25 20:21 52.10173 -8.22910 38199 ft 489 kts 108°
2026-04-25 20:22 52.08549 -8.14087 38203 ft 490 kts 108°
2026-04-25 20:22 52.06245 -8.01637 38201 ft 492 kts 108°
2026-04-25 20:23 52.04272 -7.91041 38201 ft 493 kts 108°
2026-04-25 20:23 52.02271 -7.80357 38207 ft 495 kts 108°
2026-04-25 20:24 52.00256 -7.69654 38209 ft 496 kts 108°
2026-04-25 20:24 51.98230 -7.58956 38207 ft 496 kts 109°
2026-04-25 20:25 51.96193 -7.48262 38214 ft 496 kts 109°
2026-04-25 20:25 51.94145 -7.37571 38212 ft 496 kts 109°
2026-04-25 20:26 51.92094 -7.26924 38212 ft 495 kts 109°
2026-04-25 20:26 51.90045 -7.16347 38210 ft 495 kts 109°
2026-04-25 20:27 51.87963 -7.05660 38218 ft 495 kts 109°
2026-04-25 20:27 51.85885 -6.95049 38220 ft 494 kts 109°
2026-04-25 20:28 51.83811 -6.84521 38217 ft 494 kts 109°
2026-04-25 20:28 51.81716 -6.73934 38220 ft 494 kts 109°
2026-04-25 20:29 51.79609 -6.63345 38223 ft 494 kts 109°
2026-04-25 20:29 51.77783 -6.52641 38221 ft 496 kts 100°
2026-04-25 20:30 51.76779 -6.41620 38228 ft 496 kts 98°
2026-04-25 20:30 51.75828 -6.30574 38222 ft 496 kts 98°
2026-04-25 20:31 51.74836 -6.19543 38226 ft 496 kts 99°
2026-04-25 20:31 51.73817 -6.08593 38287 ft 497 kts 99°
2026-04-25 20:32 51.73297 -6.03093 38658 ft 495 kts 99°
2026-04-25 20:32 51.72778 -5.97627 39032 ft 492 kts 99°
2026-04-25 20:32 51.72255 -5.92153 39157 ft 493 kts 99°
2026-04-25 20:32 51.71731 -5.86681 39190 ft 495 kts 99°
2026-04-25 20:33 51.70670 -5.75680 39208 ft 495 kts 99°
2026-04-25 20:33 51.69786 -5.66593 39223 ft 492 kts 99°
2026-04-25 20:34 51.68544 -5.53950 39224 ft 489 kts 99°
2026-04-25 20:34 51.67470 -5.43131 39223 ft 488 kts 99°
2026-04-25 20:35 51.66388 -5.32341 39221 ft 487 kts 99°
2026-04-25 20:35 51.65298 -5.21570 39224 ft 488 kts 99°
2026-04-25 20:36 51.64194 -5.10776 39225 ft 488 kts 99°
2026-04-25 20:36 51.63081 -4.99986 39222 ft 489 kts 99°
2026-04-25 20:37 51.61955 -4.89173 39224 ft 489 kts 99°
2026-04-25 20:37 51.60826 -4.78424 39227 ft 490 kts 99°
2026-04-25 20:38 51.59680 -4.67618 39225 ft 490 kts 100°
2026-04-25 20:38 51.58522 -4.56803 39229 ft 490 kts 100°
2026-04-25 20:39 51.57355 -4.46000 39224 ft 490 kts 100°
2026-04-25 20:39 51.56379 -4.37034 39216 ft 489 kts 100°
2026-04-25 20:40 51.54998 -4.24465 39222 ft 489 kts 100°
2026-04-25 20:40 51.53804 -4.13699 39218 ft 488 kts 100°
2026-04-25 20:41 51.52610 -4.03023 39219 ft 488 kts 100°
2026-04-25 20:41 51.51402 -3.92295 39219 ft 487 kts 101°
2026-04-25 20:42 51.50175 -3.81588 39219 ft 487 kts 101°
2026-04-25 20:42 51.48915 -3.70890 39215 ft 487 kts 101°
2026-04-25 20:43 51.47734 -3.60238 39214 ft 487 kts 97°
2026-04-25 20:43 51.47080 -3.49390 39219 ft 487 kts 95°
2026-04-25 20:44 51.46494 -3.38619 39213 ft 487 kts 95°
2026-04-25 20:44 51.45872 -3.27784 39209 ft 487 kts 96°
2026-04-25 20:45 51.45219 -3.16956 39213 ft 487 kts 96°
2026-04-25 20:45 51.44550 -3.06127 39214 ft 487 kts 96°
2026-04-25 20:46 51.43872 -2.95306 39212 ft 487 kts 96°
2026-04-25 20:46 51.43187 -2.84505 39212 ft 487 kts 96°
2026-04-25 20:47 51.42496 -2.73773 39213 ft 487 kts 96°
2026-04-25 20:47 51.41791 -2.62977 39213 ft 487 kts 96°
2026-04-25 20:48 51.41077 -2.52195 39215 ft 486 kts 96°
2026-04-25 20:48 51.40354 -2.41433 39220 ft 486 kts 96°
2026-04-25 20:49 51.39619 -2.30647 39217 ft 486 kts 96°
2026-04-25 20:49 51.38877 -2.19891 39215 ft 485 kts 96°
2026-04-25 20:50 51.38126 -2.09142 39216 ft 485 kts 97°
2026-04-25 20:50 51.37481 -1.98396 39217 ft 485 kts 94°
2026-04-25 20:51 51.37038 -1.87624 39216 ft 485 kts 94°
2026-04-25 20:51 51.36586 -1.76857 39212 ft 484 kts 94°
2026-04-25 20:52 51.36282 -1.69712 39216 ft 484 kts 94°
2026-04-25 20:52 51.35659 -1.55385 39216 ft 484 kts 94°
2026-04-25 20:53 51.35181 -1.44632 39209 ft 484 kts 94°
2026-04-25 20:53 51.34693 -1.33896 39218 ft 484 kts 94°
2026-04-25 20:54 51.34194 -1.23144 39218 ft 484 kts 94°
2026-04-25 20:54 51.33686 -1.12399 39217 ft 484 kts 94°
2026-04-25 20:55 51.33256 -1.03472 39216 ft 484 kts 94°
2026-04-25 20:55 51.32729 -0.92721 39213 ft 485 kts 95°
2026-04-25 20:56 51.32192 -0.81971 39240 ft 485 kts 95°
2026-04-25 20:56 51.31645 -0.71215 39243 ft 485 kts 95°
2026-04-25 20:57 51.31088 -0.60462 39240 ft 485 kts 95°
2026-04-25 20:57 51.30521 -0.49704 39235 ft 485 kts 95°
2026-04-25 20:58 51.29945 -0.38957 39236 ft 485 kts 95°
2026-04-25 20:58 51.29359 -0.28217 39236 ft 486 kts 95°
2026-04-25 20:59 51.28761 -0.17458 39240 ft 486 kts 95°
2026-04-25 20:59 51.28155 -0.06715 39235 ft 485 kts 95°
2026-04-25 21:00 51.27643 0.02216 39237 ft 485 kts 95°
2026-04-25 21:01 51.26601 0.20060 39237 ft 485 kts 95°
2026-04-25 21:01 51.25961 0.30786 39290 ft 485 kts 95°
2026-04-25 21:02 51.25311 0.41506 39301 ft 484 kts 95°
2026-04-25 21:02 51.24652 0.52210 39294 ft 484 kts 95°
2026-04-25 21:03 51.23982 0.62928 39287 ft 484 kts 95°
2026-04-25 21:03 51.23304 0.73622 39275 ft 484 kts 95°
2026-04-25 21:04 51.22618 0.84299 39259 ft 483 kts 95°
2026-04-25 21:04 51.21926 0.94895 39244 ft 483 kts 96°
2026-04-25 21:05 51.21220 1.05562 39246 ft 483 kts 96°
2026-04-25 21:05 51.20505 1.16221 39247 ft 482 kts 96°
2026-04-25 21:06 51.19780 1.26872 39253 ft 482 kts 96°
2026-04-25 21:06 51.19053 1.37422 39249 ft 482 kts 96°
2026-04-25 21:07 51.18311 1.48030 39251 ft 481 kts 96°
2026-04-25 21:07 51.17560 1.58631 39249 ft 481 kts 96°
2026-04-25 21:08 51.16801 1.69223 39246 ft 481 kts 96°
2026-04-25 21:08 51.16030 1.79823 39238 ft 481 kts 96°
2026-04-25 21:09 51.14858 1.95709 39239 ft 481 kts 96°
2026-04-25 21:09 51.14068 2.06243 39241 ft 481 kts 96°
2026-04-25 21:10 51.13263 2.16840 39241 ft 481 kts 96°
2026-04-25 21:10 51.12451 2.27419 39234 ft 481 kts 96°
2026-04-25 21:11 51.11629 2.37986 39250 ft 481 kts 96°
2026-04-25 21:11 51.10797 2.48563 39247 ft 481 kts 96°
2026-04-25 21:12 51.09958 2.59128 39243 ft 481 kts 96°
2026-04-25 21:12 51.09310 2.67896 39225 ft 477 kts 89°
2026-04-25 21:13 51.10180 2.74716 39249 ft 470 kts 62°
2026-04-25 21:13 51.12024 2.78935 39231 ft 464 kts 41°
2026-04-25 21:13 51.14651 2.81858 39248 ft 458 kts 20°
2026-04-25 21:13 51.17704 2.83120 39239 ft 453 kts
2026-04-25 21:14 51.20805 2.82593 39238 ft 448 kts 340°
2026-04-25 21:14 51.23536 2.80390 39256 ft 446 kts 320°
2026-04-25 21:14 51.25613 2.76754 39232 ft 445 kts 300°
2026-04-25 21:14 51.26733 2.72169 39241 ft 447 kts 279°
2026-04-25 21:15 51.26765 2.67220 39254 ft 450 kts 262°
2026-04-25 21:15 51.26189 2.62283 39252 ft 452 kts 260°
2026-04-25 21:15 51.25470 2.52298 39257 ft 455 kts 269°
2026-04-25 21:16 51.25452 2.42163 39256 ft 458 kts 271°
2026-04-25 21:16 51.25305 2.32042 39234 ft 453 kts 262°
2026-04-25 21:17 51.23399 2.22553 39238 ft 451 kts 243°
2026-04-25 21:17 51.19621 2.14570 39236 ft 453 kts 227°
2026-04-25 21:18 51.17689 2.10736 39229 ft 447 kts 245°
2026-04-25 21:18 51.16563 2.06139 39257 ft 444 kts 251°
2026-04-25 21:18 51.13388 1.97606 39209 ft 457 kts 223°
2026-04-25 21:19 51.10687 1.94873 39115 ft 467 kts 202°
2026-04-25 21:19 51.07496 1.93784 39128 ft 473 kts 182°
2026-04-25 21:19 51.04224 1.94299 39302 ft 475 kts 167°
2026-04-25 21:19 51.01104 1.96119 39208 ft 483 kts 153°
2026-04-25 21:20 50.98300 1.99046 39340 ft 482 kts 140°
2026-04-25 21:20 50.97479 2.00185 39441 ft 481 kts 137°
2026-04-25 21:20 50.93894 2.07095 39201 ft 490 kts 118°
2026-04-25 21:20 50.92697 2.12096 39245 ft 484 kts 99°
2026-04-25 21:21 50.92377 2.22583 39244 ft 478 kts 89°
2026-04-25 21:21 50.92185 2.33136 39236 ft 478 kts 94°
2026-04-25 21:22 50.91394 2.43601 39239 ft 478 kts 98°
2026-04-25 21:22 50.90279 2.54001 39245 ft 479 kts 99°
2026-04-25 21:23 50.89091 2.64405 39239 ft 480 kts 99°
2026-04-25 21:23 50.87920 2.74765 39234 ft 481 kts 99°
2026-04-25 21:24 50.86752 2.85204 39244 ft 482 kts 99°
2026-04-25 21:24 50.85580 2.95649 39231 ft 482 kts 99°
2026-04-25 21:25 50.84395 3.06118 39234 ft 483 kts 99°
2026-04-25 21:25 50.83206 3.16523 39238 ft 483 kts 100°
2026-04-25 21:26 50.82001 3.26986 39223 ft 483 kts 100°
2026-04-25 21:26 50.80780 3.37492 39236 ft 483 kts 100°
2026-04-25 21:27 50.79566 3.47855 39220 ft 482 kts 100°
2026-04-25 21:27 50.78335 3.58282 39227 ft 482 kts 100°
2026-04-25 21:28 50.77095 3.68695 39234 ft 482 kts 100°
2026-04-25 21:28 50.75844 3.79122 39229 ft 482 kts 100°
2026-04-25 21:29 50.74585 3.89530 39235 ft 482 kts 101°
2026-04-25 21:29 50.73315 3.99950 39234 ft 482 kts 101°
2026-04-25 21:30 50.72135 4.09551 39238 ft 483 kts 101°
2026-04-25 21:30 50.71058 4.18262 39236 ft 483 kts 101°
2026-04-25 21:31 50.69551 4.30351 39233 ft 484 kts 101°
2026-04-25 21:31 50.68240 4.40782 39233 ft 484 kts 101°
2026-04-25 21:32 50.66921 4.51197 39235 ft 484 kts 101°
2026-04-25 21:32 50.65590 4.61636 39238 ft 485 kts 101°
2026-04-25 21:33 50.64260 4.71980 39234 ft 485 kts 101°
2026-04-25 21:33 50.62909 4.82405 39231 ft 485 kts 101°
2026-04-25 21:34 50.61779 4.91073 39226 ft 485 kts 101°
2026-04-25 21:34 50.60412 5.01489 39217 ft 485 kts 102°
2026-04-25 21:35 50.59033 5.11910 39217 ft 486 kts 102°
2026-04-25 21:35 50.57647 5.22314 39215 ft 486 kts 102°
2026-04-25 21:36 50.56260 5.32654 39214 ft 486 kts 102°
2026-04-25 21:36 50.54853 5.43060 39211 ft 486 kts 102°
2026-04-25 21:37 50.53677 5.51709 39212 ft 486 kts 102°
2026-04-25 21:37 50.52008 5.63889 39213 ft 487 kts 102°
2026-04-25 21:38 50.50581 5.74220 39213 ft 487 kts 102°
2026-04-25 21:38 50.49134 5.84628 39213 ft 487 kts 102°
2026-04-25 21:39 50.47678 5.95023 39204 ft 487 kts 102°
2026-04-25 21:39 50.46221 6.05357 39202 ft 487 kts 102°
2026-04-25 21:40 50.44746 6.15755 39199 ft 487 kts 102°
2026-04-25 21:40 50.43262 6.26140 39187 ft 488 kts 102°
2026-04-25 21:41 50.41769 6.36524 39192 ft 488 kts 103°
2026-04-25 21:41 50.40307 6.46920 39187 ft 488 kts 102°
2026-04-25 21:42 50.38876 6.57313 39186 ft 488 kts 102°
2026-04-25 21:42 50.37438 6.67666 39187 ft 488 kts 102°
2026-04-25 21:43 50.35977 6.78057 39188 ft 489 kts 102°
2026-04-25 21:43 50.34503 6.88458 39193 ft 489 kts 102°
2026-04-25 21:44 50.33018 6.98863 39174 ft 490 kts 102°
2026-04-25 21:45 50.30781 7.14399 39187 ft 490 kts 102°
2026-04-25 21:45 50.29270 7.24811 39188 ft 491 kts 102°
2026-04-25 21:46 50.27747 7.35239 39186 ft 491 kts 102°
2026-04-25 21:46 50.26223 7.45601 39193 ft 491 kts 102°
2026-04-25 21:47 50.24683 7.56011 39176 ft 492 kts 102°
2026-04-25 21:47 50.23134 7.66421 39187 ft 492 kts 102°
2026-04-25 21:48 50.21584 7.76840 39185 ft 492 kts 102°
2026-04-25 21:48 50.20038 7.87191 39176 ft 492 kts 102°
2026-04-25 21:49 50.18473 7.97584 39179 ft 492 kts 102°
2026-04-25 21:49 50.16899 8.07969 39167 ft 492 kts 102°
2026-04-25 21:50 50.15314 8.18358 39158 ft 492 kts 102°
2026-04-25 21:50 50.13719 8.28744 39162 ft 493 kts 102°
2026-04-25 21:51 50.12115 8.39127 39177 ft 493 kts 102°
2026-04-25 21:51 50.09877 8.49239 39156 ft 494 kts 115°
2026-04-25 21:52 50.06401 8.58472 39172 ft 495 kts 124°
2026-04-25 21:52 50.02464 8.67192 39155 ft 496 kts 125°
2026-04-25 21:53 49.98472 8.75954 39156 ft 497 kts 125°
2026-04-25 21:53 49.94499 8.84762 39159 ft 498 kts 125°
2026-04-25 21:54 49.90534 8.93585 39154 ft 498 kts 125°
2026-04-25 21:54 49.86557 9.02416 39150 ft 499 kts 125°
2026-04-25 21:55 49.82601 9.11166 39170 ft 498 kts 125°
2026-04-25 21:55 49.78617 9.19944 39171 ft 498 kts 125°
2026-04-25 21:56 49.74616 9.28730 39169 ft 504 kts 125°
2026-04-25 21:56 49.70522 9.37689 39168 ft 515 kts 125°
2026-04-25 21:57 49.66342 9.46808 39161 ft 523 kts 125°
2026-04-25 21:57 49.62100 9.56027 39154 ft 528 kts 125°
2026-04-25 21:58 49.57833 9.65270 39148 ft 530 kts 125°
2026-04-25 21:58 49.53567 9.74480 39132 ft 531 kts 125°
2026-04-25 21:59 49.49273 9.83717 39126 ft 530 kts 125°
2026-04-25 21:59 49.44976 9.92930 39138 ft 528 kts 125°
2026-04-25 22:00 49.38573 10.06598 39124 ft 526 kts 125°
2026-04-25 22:00 49.34279 10.15725 39121 ft 525 kts 125°
2026-04-25 22:01 49.29996 10.24804 39152 ft 524 kts 125°
2026-04-25 22:01 49.26433 10.32331 39143 ft 525 kts 125°
2026-04-25 22:02 49.21046 10.42359 39157 ft 525 kts 135°
2026-04-25 22:02 49.15803 10.50130 39159 ft 524 kts 133°
2026-04-25 22:03 49.11541 10.59116 39185 ft 523 kts 118°
2026-04-25 22:03 49.08658 10.69261 39175 ft 520 kts 108°
2026-04-25 22:04 49.06219 10.79598 39165 ft 521 kts 108°
2026-04-25 22:04 49.03747 10.89979 39151 ft 521 kts 109°
2026-04-25 22:05 49.01218 11.00328 39145 ft 521 kts 109°
2026-04-25 22:05 48.98659 11.10663 39128 ft 522 kts 109°
2026-04-25 22:06 48.96084 11.21002 39128 ft 522 kts 109°
2026-04-25 22:06 48.93505 11.31327 39122 ft 522 kts 109°
2026-04-25 22:07 48.91356 11.39898 39129 ft 522 kts 109°
2026-04-25 22:07 48.88320 11.51955 39124 ft 522 kts 109°
2026-04-25 22:08 48.85731 11.62186 39130 ft 522 kts 110°
2026-04-25 22:08 48.83116 11.72472 39123 ft 522 kts 110°
2026-04-25 22:09 48.80489 11.82758 39132 ft 522 kts 110°
2026-04-25 22:09 48.77850 11.93046 39123 ft 522 kts 110°
2026-04-25 22:10 48.75225 12.03231 39120 ft 522 kts 110°
2026-04-25 22:10 48.72573 12.13478 39116 ft 522 kts 110°
2026-04-25 22:11 48.69908 12.23726 39121 ft 522 kts 110°
2026-04-25 22:11 48.67233 12.33967 39108 ft 522 kts 110°
2026-04-25 22:12 48.64556 12.44173 39109 ft 522 kts 110°
2026-04-25 22:12 48.62777 12.50928 39112 ft 522 kts 110°
2026-04-25 22:13 48.59246 12.64276 38890 ft 502 kts 110°
2026-04-25 22:13 48.57952 12.69147 38472 ft 497 kts 110°
2026-04-25 22:13 48.56665 12.73986 37900 ft 494 kts 110°
2026-04-25 22:14 48.55386 12.78785 37344 ft 491 kts 110°
2026-04-25 22:14 48.54114 12.83548 36817 ft 488 kts 110°
2026-04-25 22:14 48.52846 12.88285 36310 ft 485 kts 110°
2026-04-25 22:14 48.51583 12.92994 35795 ft 482 kts 110°
2026-04-25 22:15 48.50330 12.97660 35308 ft 479 kts 111°
2026-04-25 22:15 48.49119 13.02331 34814 ft 476 kts 106°
2026-04-25 22:15 48.48297 13.07141 34331 ft 471 kts 97°
2026-04-25 22:16 48.47846 13.16799 33314 ft 460 kts 85°
2026-04-25 22:16 48.47981 13.21585 33102 ft 450 kts 84°
2026-04-25 22:16 48.48131 13.26239 33089 ft 441 kts 84°
2026-04-25 22:17 48.48423 13.35482 33096 ft 446 kts 84°
2026-04-25 22:17 48.48551 13.40217 33092 ft 458 kts 85°
2026-04-25 22:17 48.48676 13.45110 32740 ft 473 kts 85°
2026-04-25 22:17 48.48796 13.50057 32314 ft 471 kts 85°
2026-04-25 22:18 48.48912 13.54991 31930 ft 469 kts 85°
2026-04-25 22:18 48.49025 13.59853 31563 ft 468 kts 85°
2026-04-25 22:18 48.49139 13.64744 31193 ft 466 kts 85°
2026-04-25 22:18 48.49252 13.69622 30822 ft 464 kts 85°
2026-04-25 22:19 48.49364 13.74485 30449 ft 462 kts 85°
2026-04-25 22:19 48.49436 13.77685 30211 ft 460 kts 85°
2026-04-25 22:19 48.49580 13.84126 29658 ft 458 kts 85°
2026-04-25 22:19 48.49685 13.88902 29236 ft 455 kts 85°
2026-04-25 22:20 48.49787 13.93664 28830 ft 453 kts 85°
2026-04-25 22:20 48.49853 13.96798 28555 ft 451 kts 85°
2026-04-25 22:20 48.49951 14.01513 28158 ft 448 kts 85°
2026-04-25 22:20 48.50046 14.06203 27759 ft 445 kts 85°
2026-04-25 22:21 48.50168 14.12360 27243 ft 441 kts 85°
2026-04-25 22:21 48.50229 14.15485 26979 ft 439 kts 85°
2026-04-25 22:21 48.50316 14.20077 26603 ft 436 kts 85°
2026-04-25 22:21 48.50401 14.24576 26222 ft 433 kts 85°
2026-04-25 22:22 48.50485 14.29165 25842 ft 430 kts 85°
2026-04-25 22:22 48.50565 14.33658 25478 ft 428 kts 85°
2026-04-25 22:22 48.50642 14.38080 25118 ft 425 kts 85°
2026-04-25 22:22 48.50718 14.42541 24760 ft 423 kts 85°
2026-04-25 22:23 48.50792 14.46957 24392 ft 421 kts 85°
2026-04-25 22:23 48.50864 14.51365 24049 ft 419 kts 85°
2026-04-25 22:23 48.50934 14.55741 23701 ft 417 kts 85°
2026-04-25 22:23 48.51003 14.60104 23302 ft 415 kts 85°
2026-04-25 22:24 48.51069 14.64444 22900 ft 413 kts 85°
2026-04-25 22:24 48.51134 14.68763 22506 ft 411 kts 85°
2026-04-25 22:24 48.51197 14.73061 22106 ft 409 kts 86°
2026-04-25 22:24 48.51258 14.77358 21716 ft 408 kts 86°
2026-04-25 22:25 48.51317 14.81623 21322 ft 406 kts 86°
2026-04-25 22:25 48.51374 14.85879 20948 ft 405 kts 86°
2026-04-25 22:25 48.51429 14.90114 20572 ft 403 kts 86°
2026-04-25 22:25 48.51483 14.94338 20199 ft 402 kts 86°
2026-04-25 22:26 48.51535 14.98542 19830 ft 400 kts 86°
2026-04-25 22:26 48.51585 15.02691 19377 ft 402 kts 86°
2026-04-25 22:26 48.51637 15.06973 18782 ft 414 kts 86°
2026-04-25 22:26 48.51688 15.11361 18363 ft 420 kts 86°
2026-04-25 22:27 48.51736 15.15785 17950 ft 423 kts 86°
2026-04-25 22:27 48.51782 15.20238 17535 ft 426 kts 86°
2026-04-25 22:27 48.51826 15.24712 17212 ft 426 kts 86°
2026-04-25 22:27 48.51868 15.29106 17089 ft 421 kts 86°
2026-04-25 22:28 48.51909 15.33563 16975 ft 419 kts 86°
2026-04-25 22:28 48.51949 15.37941 16657 ft 418 kts 86°
2026-04-25 22:28 48.51988 15.42336 16154 ft 421 kts 86°
2026-04-25 22:28 48.51948 15.46764 15531 ft 423 kts 91°
2026-04-25 22:29 48.51706 15.51185 14923 ft 422 kts 93°
2026-04-25 22:29 48.51399 15.55574 14338 ft 420 kts 94°
2026-04-25 22:29 48.51114 15.59941 13729 ft 417 kts 93°
2026-04-25 22:30 48.50229 15.68384 13038 ft 406 kts 104°
2026-04-25 22:30 48.49306 15.72404 13014 ft 404 kts 109°
2026-04-25 22:30 48.48300 15.76377 13013 ft 405 kts 109°
2026-04-25 22:30 48.47621 15.79061 13007 ft 406 kts 109°
2026-04-25 22:31 48.46292 15.84337 13000 ft 406 kts 109°
2026-04-25 22:31 48.45292 15.88321 13004 ft 406 kts 109°
2026-04-25 22:31 48.44294 15.92306 13004 ft 406 kts 109°
2026-04-25 22:31 48.43298 15.96285 13001 ft 406 kts 109°
2026-04-25 22:32 48.42306 16.00250 12800 ft 404 kts 109°
2026-04-25 22:32 48.41319 16.04185 12402 ft 398 kts 109°
2026-04-25 22:32 48.40345 16.08062 11930 ft 394 kts 109°
2026-04-25 22:32 48.39379 16.11904 11424 ft 391 kts 110°
2026-04-25 22:33 48.38437 16.15643 10930 ft 379 kts 110°
2026-04-25 22:33 48.37525 16.19252 10424 ft 360 kts 110°
2026-04-25 22:33 48.36656 16.22689 9929 ft 344 kts 110°
2026-04-25 22:33 48.35818 16.25997 9392 ft 331 kts 110°
2026-04-25 22:34 48.35011 16.29184 8845 ft 321 kts 110°
2026-04-25 22:34 48.34228 16.32269 8327 ft 311 kts 110°
2026-04-25 22:34 48.33466 16.35271 7814 ft 304 kts 110°
2026-04-25 22:34 48.32719 16.38212 7315 ft 299 kts 110°
2026-04-25 22:35 48.31980 16.41118 6804 ft 296 kts 110°
2026-04-25 22:35 48.31256 16.43953 6305 ft 286 kts 110°
2026-04-25 22:35 48.30561 16.46668 6045 ft 273 kts 110°
2026-04-25 22:35 48.29890 16.49243 5953 ft 262 kts 114°
2026-04-25 22:36 48.28774 16.51405 6007 ft 264 kts 143°
2026-04-25 22:36 48.27289 16.53059 6001 ft 268 kts 146°
2026-04-25 22:36 48.25796 16.54718 5961 ft 265 kts 145°
2026-04-25 22:36 48.24336 16.56353 5960 ft 260 kts 145°
2026-04-25 22:37 48.22896 16.57972 5962 ft 257 kts 145°
2026-04-25 22:37 48.21456 16.59591 5988 ft 261 kts 145°
2026-04-25 22:37 48.19994 16.61235 5987 ft 264 kts 145°
2026-04-25 22:37 48.18559 16.62942 5954 ft 262 kts 135°
2026-04-25 22:38 48.17593 16.65224 5997 ft 260 kts 115°
2026-04-25 22:38 48.16779 16.67780 6006 ft 280 kts 115°
2026-04-25 22:38 48.15932 16.70398 5777 ft 276 kts 115°
2026-04-25 22:38 48.15102 16.72945 5265 ft 268 kts 115°
2026-04-25 22:39 48.14300 16.75389 5037 ft 262 kts 115°
2026-04-25 22:39 48.13487 16.77856 4981 ft 262 kts 115°
2026-04-25 22:39 48.12684 16.80283 4962 ft 259 kts 115°
2026-04-25 22:39 48.11897 16.82655 4964 ft 258 kts 115°
2026-04-25 22:40 48.11087 16.85097 4987 ft 264 kts 115°
2026-04-25 22:40 48.10271 16.87554 4967 ft 262 kts 115°
2026-04-25 22:40 48.09466 16.89974 4959 ft 258 kts 115°
2026-04-25 22:40 48.08668 16.92367 4947 ft 257 kts 115°
2026-04-25 22:41 48.07865 16.94776 4956 ft 259 kts 115°
2026-04-25 22:41 48.07061 16.97185 4961 ft 260 kts 115°
2026-04-25 22:41 48.06251 16.99610 4958 ft 261 kts 115°
2026-04-25 22:41 48.05438 17.02042 4953 ft 261 kts 115°
2026-04-25 22:42 48.04625 17.04475 4951 ft 261 kts 115°
2026-04-25 22:42 48.03814 17.06898 4945 ft 261 kts 115°
2026-04-25 22:42 48.03003 17.09316 4948 ft 260 kts 115°
2026-04-25 22:42 48.02196 17.11721 4942 ft 259 kts 115°
2026-04-25 22:43 48.01388 17.14118 4942 ft 256 kts 117°
2026-04-25 22:43 48.00255 17.16101 4936 ft 251 kts 148°
2026-04-25 22:43 47.98623 17.16911 4961 ft 249 kts 182°
2026-04-25 22:43 47.96981 17.16342 4953 ft 238 kts 215°
2026-04-25 22:44 47.95892 17.14686 4934 ft 215 kts 249°
2026-04-25 22:44 47.95524 17.12610 4887 ft 205 kts 267°
2026-04-25 22:44 47.95470 17.10502 4756 ft 202 kts 276°
2026-04-25 22:44 47.95612 17.08406 4415 ft 206 kts 282°
2026-04-25 22:45 47.95904 17.06294 4049 ft 206 kts 287°
2026-04-25 22:45 47.96272 17.04309 3952 ft 193 kts 290°
2026-04-25 22:45 47.96645 17.02474 3941 ft 175 kts 290°
2026-04-25 22:45 47.97011 17.00844 3925 ft 157 kts 293°
2026-04-25 22:46 47.97406 16.99352 3955 ft 155 kts 295°
2026-04-25 22:46 47.97838 16.97871 3957 ft 156 kts 297°
2026-04-25 22:46 47.98291 16.96398 3954 ft 156 kts 297°
2026-04-25 22:46 47.98753 16.94931 3958 ft 156 kts 297°
2026-04-25 22:47 47.99225 16.93461 3960 ft 157 kts 298°
2026-04-25 22:47 47.99701 16.91991 3969 ft 157 kts 298°
2026-04-25 22:47 48.00175 16.90534 3972 ft 158 kts 298°
2026-04-25 22:47 48.00656 16.89054 3976 ft 158 kts 298°
2026-04-25 22:48 48.01137 16.87581 3969 ft 157 kts 298°
2026-04-25 22:48 48.01614 16.86116 3970 ft 156 kts 298°
2026-04-25 22:48 48.02090 16.84657 3966 ft 156 kts 298°
2026-04-25 22:48 48.02563 16.83207 3964 ft 154 kts 298°
2026-04-25 22:49 48.03029 16.81777 3960 ft 152 kts 298°
2026-04-25 22:49 48.03497 16.80342 3850 ft 157 kts 298°
2026-04-25 22:49 48.03962 16.78911 3638 ft 148 kts 298°
2026-04-25 22:49 48.04395 16.77583 3439 ft 136 kts 299°
2026-04-25 22:50 48.04808 16.76315 3300 ft 135 kts 299°
2026-04-25 22:50 48.05221 16.75050 3145 ft 140 kts 299°
2026-04-25 22:50 48.05648 16.73737 2917 ft 140 kts 299°
2026-04-25 22:50 48.06069 16.72442 2727 ft 137 kts 300°
2026-04-25 22:51 48.06485 16.71166 2543 ft 136 kts 301°
2026-04-25 22:51 48.06898 16.69895 2379 ft 136 kts 300°
2026-04-25 22:51 48.07314 16.68623 2185 ft 136 kts 300°
2026-04-25 22:51 48.07728 16.67346 2007 ft 136 kts 300°
2026-04-25 22:52 48.08141 16.66076 1817 ft 135 kts 300°
2026-04-25 22:52 48.08554 16.64807 1653 ft 136 kts 300°
2026-04-25 22:52 48.08972 16.63523 1440 ft 137 kts 298°
2026-04-25 22:52 48.09248 16.62672 1319 ft 136 kts 297°
2026-04-25 22:53 48.09789 16.60977 1102 ft 135 kts 296°
2026-04-25 22:53 48.10200 16.59723 949 ft 133 kts 297°
2026-04-25 22:53 48.10606 16.58474 774 ft 133 kts 296°
2026-04-25 22:53 48.11011 16.57241 634 ft 133 kts 295°
2026-04-25 22:54 48.11381 16.56117 627 ft 106 kts 296°
2026-04-25 22:54 48.11665 16.55229 624 ft 81 kts 296°
2026-04-25 22:54 48.11803 16.54825 627 ft 30 kts 304°
2026-04-25 22:54 48.11978 16.54577 626 ft 31 kts 326°
2026-04-25 22:55 48.12034 16.54548 624 ft 0 kts 358°
2026-04-25 22:55 48.12042 16.54550 625 ft 2 kts 11°
2026-04-25 22:55 48.12061 16.54559 626 ft 4 kts 17°
2026-04-25 22:55 48.12074 16.54588 628 ft 4 kts 96°
2026-04-25 22:56 48.12042 16.54715 623 ft 20 kts 114°
2026-04-25 22:56 48.11980 16.54909 624 ft 21 kts 116°
2026-04-25 22:56 48.11917 16.55103 628 ft 21 kts 116°
2026-04-25 22:56 48.11854 16.55297 619 ft 21 kts 116°
2026-04-25 22:57 48.11791 16.55491 622 ft 21 kts 116°
2026-04-25 22:57 48.11728 16.55685 629 ft 21 kts 116°
2026-04-25 22:57 48.11664 16.55879 625 ft 21 kts 116°
2026-04-25 22:57 48.11614 16.56033 624 ft 13 kts 116°
2026-04-25 22:58 48.11574 16.56157 623 ft 13 kts 116°
2026-04-25 22:58 48.11501 16.56380 619 ft 36 kts 115°
2026-04-25 22:58 48.11429 16.56601 626 ft 17 kts 116°
2026-04-25 22:58 48.11377 16.56763 627 ft 18 kts 116°
2026-04-25 22:59 48.11321 16.56930 620 ft 18 kts 116°
2026-04-25 22:59 48.11265 16.57105 624 ft 19 kts 115°
2026-04-25 22:59 48.11230 16.57240 624 ft 8 kts 94°
2026-04-25 22:59 48.11265 16.57297 622 ft 8 kts 28°
2026-04-25 23:00 48.11319 16.57337 626 ft 9 kts 25°
2026-04-25 23:00 48.11381 16.57380 623 ft 10 kts 25°
2026-04-25 23:00 48.11449 16.57429 625 ft 11 kts 25°
2026-04-25 23:00 48.11525 16.57461 614 ft 12 kts
2026-04-25 23:01 48.11579 16.57444 626 ft 12 kts 341°
2026-04-25 23:01 48.11660 16.57407 625 ft 12 kts 344°
2026-04-25 23:01 48.11741 16.57374 626 ft 12 kts 344°
2026-04-25 23:01 48.11834 16.57289 629 ft 12 kts 295°
2026-04-25 23:02 48.11870 16.57169 626 ft 13 kts 295°
2026-04-25 23:02 48.11890 16.57105 622 ft 0 kts 293°
2026-04-25 23:02 48.11890 16.57099 621 ft 2 kts 276°
2026-04-25 23:02 48.11875 16.57079 622 ft 4 kts 201°
2026-04-25 23:03 48.11845 16.57066 627 ft 5 kts 197°
2026-04-25 23:03 48.11820 16.57049 629 ft 4 kts 204°
2026-04-25 23:03 48.11811 16.57042 625 ft 1 kts 207°
2026-04-25 23:03 48.11810 16.57041 625 ft 0 kts 207°